Time,TemperatureF,DewpointF,PressureIn,WindDirection,WindDirectionDegrees,WindSpeedMPH,WindSpeedGustMPH,Humidity,HourlyPrecipIn,Conditions,Clouds,dailyrainin,SolarRadiationWatts/m^2,SoftwareType,DateUTC
2013-02-04 00:02:00,9.0,-1.0,-100.00,North,0,3.0,5.0,62,0.00,,,0.00,1.000000,,2013-02-04 06:02:00,
2013-02-04 00:32:00,8.0,-5.0,-100.00,NE,41,6.0,9.0,54,0.00,,,0.00,1.000000,,2013-02-04 06:32:00,
2013-02-04 00:42:00,8.0,-5.0,-100.00,NE,41,6.0,9.0,54,0.00,,,0.00,1.000000,,2013-02-04 06:42:00,
2013-02-04 00:52:00,8.0,-5.0,-100.00,NE,41,6.0,9.0,54,0.00,,,0.00,1.000000,,2013-02-04 06:52:00,
2013-02-04 01:02:00,8.0,-5.0,-100.00,NE,41,6.0,9.0,54,0.00,,,0.00,1.000000,,2013-02-04 07:02:00,
2013-02-04 01:32:00,7.0,-6.0,-100.00,NNE,28,6.0,10.0,54,0.00,,,0.00,1.000000,,2013-02-04 07:32:00,
2013-02-04 01:42:00,7.0,-6.0,-100.00,NNE,28,6.0,10.0,54,0.00,,,0.00,1.000000,,2013-02-04 07:42:00,
2013-02-04 01:52:00,7.0,-6.0,-100.00,NNE,28,6.0,10.0,54,0.00,,,0.00,1.000000,,2013-02-04 07:52:00,
2013-02-04 02:01:00,7.0,-6.0,-100.00,NNE,28,6.0,10.0,54,0.00,,,0.00,1.000000,,2013-02-04 08:01:00,
2013-02-04 02:32:00,6.0,-7.0,-100.00,NNE,32,5.0,10.0,54,0.00,,,0.00,1.000000,,2013-02-04 08:32:00,
2013-02-04 02:42:00,6.0,-7.0,-100.00,NNE,32,5.0,10.0,54,0.00,,,0.00,1.000000,,2013-02-04 08:42:00,
2013-02-04 02:52:00,6.0,-7.0,-100.00,NNE,32,5.0,10.0,54,0.00,,,0.00,1.000000,,2013-02-04 08:52:00,
2013-02-04 03:02:00,6.0,-7.0,-100.00,NNE,32,5.0,10.0,54,0.00,,,0.00,1.000000,,2013-02-04 09:02:00,
2013-02-04 03:32:00,3.0,-9.0,-100.00,NNE,12,3.0,7.0,57,0.00,,,0.00,1.000000,,2013-02-04 09:32:00,
2013-02-04 03:42:00,3.0,-9.0,-100.00,NNE,12,3.0,7.0,57,0.00,,,0.00,1.000000,,2013-02-04 09:42:00,
2013-02-04 03:52:00,3.0,-9.0,-100.00,NNE,12,3.0,7.0,57,0.00,,,0.00,1.000000,,2013-02-04 09:52:00,
2013-02-04 04:01:00,3.0,-9.0,-100.00,NNE,12,3.0,7.0,57,0.00,,,0.00,1.000000,,2013-02-04 10:01:00,
2013-02-04 04:32:00,1.0,-9.0,-100.00,North,359,4.0,7.0,61,0.00,,,0.00,1.000000,,2013-02-04 10:32:00,
2013-02-04 04:42:00,1.0,-9.0,-100.00,North,359,4.0,7.0,61,0.00,,,0.00,1.000000,,2013-02-04 10:42:00,
2013-02-04 04:52:00,1.0,-9.0,-100.00,North,359,4.0,7.0,61,0.00,,,0.00,1.000000,,2013-02-04 10:52:00,
2013-02-04 05:02:00,1.0,-9.0,-100.00,North,359,4.0,7.0,61,0.00,,,0.00,1.000000,,2013-02-04 11:02:00,
2013-02-04 05:33:00,1.0,-10.0,-100.00,NNE,12,4.0,8.0,60,0.00,,,0.00,1.000000,,2013-02-04 11:33:00,
2013-02-04 05:42:00,1.0,-10.0,-100.00,NNE,12,4.0,8.0,60,0.00,,,0.00,1.000000,,2013-02-04 11:42:00,
2013-02-04 05:52:00,1.0,-10.0,-100.00,NNE,12,4.0,8.0,60,0.00,,,0.00,1.000000,,2013-02-04 11:52:00,
2013-02-04 06:02:00,1.0,-10.0,-100.00,NNE,12,4.0,8.0,60,0.00,,,0.00,1.000000,,2013-02-04 12:02:00,
2013-02-04 06:33:00,-2.0,-11.0,-100.00,North,349,3.0,8.0,64,0.00,,,0.00,1.000000,,2013-02-04 12:33:00,
2013-02-04 06:42:00,-2.0,-11.0,-100.00,North,349,3.0,8.0,64,0.00,,,0.00,1.000000,,2013-02-04 12:42:00,
2013-02-04 06:53:00,-2.0,-11.0,-100.00,North,349,3.0,8.0,64,0.00,,,0.00,1.000000,,2013-02-04 12:53:00,
2013-02-04 07:02:00,-2.0,-11.0,-100.00,North,349,3.0,8.0,64,0.00,,,0.00,1.000000,,2013-02-04 13:02:00,
2013-02-04 07:33:00,-8.0,-14.0,-100.00,West,262,1.0,4.0,73,0.00,,,0.00,1.000000,,2013-02-04 13:33:00,
2013-02-04 07:42:00,-8.0,-14.0,-100.00,West,262,1.0,4.0,73,0.00,,,0.00,1.000000,,2013-02-04 13:42:00,
2013-02-04 07:52:00,-8.0,-14.0,-100.00,West,262,1.0,4.0,73,0.00,,,0.00,1.000000,,2013-02-04 13:52:00,
2013-02-04 08:03:00,-8.0,-14.0,-100.00,West,262,1.0,4.0,73,0.00,,,0.00,1.000000,,2013-02-04 14:03:00,
2013-02-04 08:33:00,-8.0,-15.0,-100.00,NW,313,2.0,3.0,72,0.00,,,0.00,15.000000,,2013-02-04 14:33:00,
2013-02-04 08:42:00,-8.0,-15.0,-100.00,NW,313,2.0,3.0,72,0.00,,,0.00,15.000000,,2013-02-04 14:42:00,
2013-02-04 08:52:00,-8.0,-15.0,-100.00,NW,313,2.0,3.0,72,0.00,,,0.00,15.000000,,2013-02-04 14:52:00,
2013-02-04 09:03:00,-8.0,-15.0,-100.00,NW,313,2.0,3.0,72,0.00,,,0.00,15.000000,,2013-02-04 15:03:00,
2013-02-04 09:33:00,0.0,-12.0,-100.00,NNW,329,5.0,6.0,57,0.00,,,0.00,161.000000,,2013-02-04 15:33:00,
2013-02-04 09:43:00,0.0,-12.0,-100.00,NNW,329,5.0,6.0,57,0.00,,,0.00,161.000000,,2013-02-04 15:43:00,
2013-02-04 09:53:00,0.0,-12.0,-100.00,NNW,329,5.0,6.0,57,0.00,,,0.00,161.000000,,2013-02-04 15:53:00,
2013-02-04 10:03:00,0.0,-12.0,-100.00,NNW,329,5.0,6.0,57,0.00,,,0.00,161.000000,,2013-02-04 16:03:00,
2013-02-04 12:33:00,10.0,-8.0,-100.00,South,169,3.0,5.0,43,-99.99,,,0.00,294.000000,,2013-02-04 18:33:00,
2013-02-04 12:42:00,10.0,-8.0,-100.00,South,169,3.0,5.0,43,-99.99,,,0.00,294.000000,,2013-02-04 18:42:00,
2013-02-04 12:52:00,10.0,-8.0,-100.00,South,169,3.0,5.0,43,-99.99,,,0.00,294.000000,,2013-02-04 18:52:00,
2013-02-04 13:02:00,10.0,-8.0,-100.00,South,169,3.0,5.0,43,-99.99,,,0.00,294.000000,,2013-02-04 19:02:00,
2013-02-04 13:32:00,11.0,-6.0,-100.00,South,178,7.0,10.0,46,0.00,,,0.00,324.000000,,2013-02-04 19:32:00,
2013-02-04 13:42:00,11.0,-6.0,-100.00,South,178,7.0,10.0,46,0.00,,,0.00,324.000000,,2013-02-04 19:42:00,
2013-02-04 13:52:00,11.0,-6.0,-100.00,South,178,7.0,10.0,46,0.00,,,0.00,324.000000,,2013-02-04 19:52:00,
2013-02-04 14:02:00,11.0,-6.0,-100.00,South,178,7.0,10.0,46,0.00,,,0.00,324.000000,,2013-02-04 20:02:00,
2013-02-04 15:32:00,12.0,-6.0,-100.00,SW,218,8.0,11.0,44,-99.99,,,0.00,403.000000,,2013-02-04 21:32:00,
2013-02-04 15:43:00,12.0,-6.0,-100.00,SW,218,8.0,11.0,44,-99.99,,,0.00,403.000000,,2013-02-04 21:43:00,
2013-02-04 15:52:00,12.0,-6.0,-100.00,SW,218,8.0,11.0,44,-99.99,,,0.00,403.000000,,2013-02-04 21:52:00,
2013-02-04 16:02:00,12.0,-6.0,-100.00,SW,218,8.0,11.0,44,-99.99,,,0.00,403.000000,,2013-02-04 22:02:00,
2013-02-04 16:33:00,10.0,-5.0,-100.00,SW,224,5.0,11.0,49,0.00,,,0.00,173.000000,,2013-02-04 22:33:00,
2013-02-04 16:42:00,10.0,-5.0,-100.00,SW,224,5.0,11.0,49,0.00,,,0.00,173.000000,,2013-02-04 22:42:00,
2013-02-04 16:52:00,10.0,-5.0,-100.00,SW,224,5.0,11.0,49,0.00,,,0.00,173.000000,,2013-02-04 22:52:00,
2013-02-04 17:01:00,10.0,-5.0,-100.00,SW,224,5.0,11.0,49,0.00,,,0.00,173.000000,,2013-02-04 23:01:00,
2013-02-04 17:32:00,9.0,-4.0,-100.00,SSW,210,7.0,9.0,54,0.00,,,-99.99,46.000000,,2013-02-04 23:32:00,
2013-02-04 17:42:00,9.0,-4.0,-100.00,SSW,210,7.0,9.0,54,0.00,,,-99.99,46.000000,,2013-02-04 23:42:00,
2013-02-04 17:52:00,9.0,-4.0,-100.00,SSW,210,7.0,9.0,54,0.00,,,-99.99,46.000000,,2013-02-04 23:52:00,
2013-02-04 18:01:00,9.0,-4.0,-100.00,SSW,210,7.0,9.0,54,0.00,,,-99.99,46.000000,,2013-02-05 00:01:00,
2013-02-04 18:32:00,8.0,-5.0,-100.00,SSE,150,4.0,7.0,55,0.00,,,-99.99,3.000000,,2013-02-05 00:32:00,
2013-02-04 18:42:00,8.0,-5.0,-100.00,SSE,150,4.0,7.0,55,0.00,,,-99.99,3.000000,,2013-02-05 00:42:00,
2013-02-04 18:52:00,8.0,-5.0,-100.00,SSE,150,4.0,7.0,55,0.00,,,-99.99,3.000000,,2013-02-05 00:52:00,
2013-02-04 19:02:00,8.0,-5.0,-100.00,SSE,150,4.0,7.0,55,0.00,,,-99.99,3.000000,,2013-02-05 01:02:00,
2013-02-04 19:33:00,8.0,-4.0,-100.00,SSE,162,5.0,6.0,57,0.00,,,0.00,1.000000,,2013-02-05 01:33:00,
2013-02-04 19:42:00,8.0,-4.0,-100.00,SSE,162,5.0,6.0,57,0.00,,,0.00,1.000000,,2013-02-05 01:42:00,
2013-02-04 19:52:00,8.0,-4.0,-100.00,SSE,162,5.0,6.0,57,0.00,,,0.00,1.000000,,2013-02-05 01:52:00,
2013-02-04 20:01:00,8.0,-4.0,-100.00,SSE,162,5.0,6.0,57,0.00,,,0.00,1.000000,,2013-02-05 02:01:00,
2013-02-04 20:32:00,9.0,-2.0,-100.00,SSE,165,6.0,9.0,61,0.00,,,0.00,1.000000,,2013-02-05 02:32:00,
2013-02-04 20:42:00,9.0,-2.0,-100.00,SSE,165,6.0,9.0,61,0.00,,,0.00,1.000000,,2013-02-05 02:42:00,
2013-02-04 20:52:00,9.0,-2.0,-100.00,SSE,165,6.0,9.0,61,0.00,,,0.00,1.000000,,2013-02-05 02:52:00,
2013-02-04 21:02:00,9.0,-2.0,-100.00,SSE,165,6.0,9.0,61,0.00,,,0.00,1.000000,,2013-02-05 03:02:00,
2013-02-04 21:32:00,10.0,-1.0,-100.00,South,190,9.0,12.0,61,0.00,,,0.00,1.000000,,2013-02-05 03:32:00,
2013-02-04 21:42:00,10.0,-1.0,-100.00,South,190,9.0,12.0,61,0.00,,,0.00,1.000000,,2013-02-05 03:42:00,
2013-02-04 21:52:00,10.0,-1.0,-100.00,South,190,9.0,12.0,61,0.00,,,0.00,1.000000,,2013-02-05 03:52:00,
2013-02-04 22:01:00,10.0,-1.0,-100.00,South,190,9.0,12.0,61,0.00,,,0.00,1.000000,,2013-02-05 04:01:00,
2013-02-04 22:32:00,11.0,1.0,-100.00,South,183,11.0,17.0,64,0.00,,,0.00,1.000000,,2013-02-05 04:32:00,
2013-02-04 22:42:00,11.0,1.0,-100.00,South,183,11.0,17.0,64,0.00,,,0.00,1.000000,,2013-02-05 04:42:00,
2013-02-04 22:52:00,11.0,1.0,-100.00,South,183,11.0,17.0,64,0.00,,,0.00,1.000000,,2013-02-05 04:52:00,
2013-02-04 23:02:00,11.0,1.0,-100.00,South,183,11.0,17.0,64,0.00,,,0.00,1.000000,,2013-02-05 05:02:00,
2013-02-04 23:32:00,10.0,6.0,-100.00,SSE,164,11.0,17.0,82,0.00,,,0.00,1.000000,,2013-02-05 05:32:00,
2013-02-04 23:42:00,10.0,6.0,-100.00,SSE,164,11.0,17.0,82,0.00,,,0.00,1.000000,,2013-02-05 05:42:00,
2013-02-04 23:52:00,10.0,6.0,-100.00,SSE,164,11.0,17.0,82,0.00,,,0.00,1.000000,,2013-02-05 05:52:00,